sat.trackr.live / text

‹ back to catalog

STARLINK-32662

NORAD 62215 · 2024-229Z

PAYLOAD ACTIVE UNKNOWN

§ Identity

Operator
Country
US
Launch date
2024-12-04
Launch site
AFETR
Launch vehicle
Mass (kg)
RCS (m²)

Purposes: comms

External: N2YO · Heavens-Above · Gunter

§ Orbital elements

Epoch: 2026-05-24T13:37:32.808576Z

Period
94.27 min
Inclination
43.0002°
Eccentricity
0.0002131
Mean motion
15.27586478 rev/d
Perigee alt
481.6 km
Apogee alt
484.5 km
Semi-major
6,861.2 km
B*
3.7920e-4
RAAN
202.3874°
Arg perigee
269.4918°
Mean anomaly
90.5690°
Rev number
8,216

§ Raw data

STARLINK-326621 62215U 24229Z   26144.56774084  .00010189  00000+0  37920-3 0  99952 62215  43.0002 202.3874 0002131 269.4918  90.5690 15.27586478 82168

JSON: /api/v1/satellites/62215 · /tle

For live sub-satellite position, see the globe view (requires WebGL).

§ Visibility from observer

Set your observer location to see the next 7 days of passes ≥ 10°. The values pass through the URL so the page stays shareable.

No JS? Fill the form by hand. The geolocation button needs JavaScript.